Time,TemperatureF,DewpointF,PressureIn,WindDirection,WindDirectionDegrees,WindSpeedMPH,WindSpeedGustMPH,Humidity,HourlyPrecipIn,Conditions,Clouds,dailyrainin,SoftwareType,DateUTC
2013-04-10 00:00:00,37.0,33.5,29.88,North,0,0.0,0.0,87,0.04,,,-99.99,VWS V12.07,2013-04-10 05:00:00,
2013-04-10 00:05:00,37.0,33.5,29.88,North,0,0.0,0.0,87,0.00,,,-99.99,VWS V12.07,2013-04-10 05:05:00,
2013-04-10 00:11:00,37.0,33.5,29.88,North,0,0.0,0.0,87,0.00,,,-99.99,VWS V12.07,2013-04-10 05:11:00,
2013-04-10 00:20:00,36.9,33.4,29.88,North,0,0.0,0.0,87,0.00,,,-99.99,VWS V12.07,2013-04-10 05:20:00,
2013-04-10 00:25:00,36.9,33.4,29.88,North,0,0.0,0.0,87,0.00,,,-99.99,VWS V12.07,2013-04-10 05:25:00,
2013-04-10 00:30:00,36.9,33.4,29.88,North,0,0.0,0.0,87,0.00,,,-99.99,VWS V12.07,2013-04-10 05:30:00,
2013-04-10 00:40:00,36.9,33.4,29.88,North,0,0.0,0.0,87,0.00,,,-99.99,VWS V12.07,2013-04-10 05:40:00,
2013-04-10 00:45:00,36.7,33.2,29.88,North,0,0.0,0.0,87,0.00,,,-99.99,VWS V12.07,2013-04-10 05:45:00,
2013-04-10 00:50:00,36.7,33.2,29.88,North,0,0.0,0.0,87,0.00,,,-99.99,VWS V12.07,2013-04-10 05:50:00,
2013-04-10 00:55:00,36.7,33.2,29.88,North,0,0.0,0.0,87,0.00,,,-99.99,VWS V12.07,2013-04-10 05:55:00,
2013-04-10 01:00:00,36.7,33.2,29.88,North,0,0.0,0.0,87,0.00,,,-99.99,VWS V12.07,2013-04-10 06:00:00,
2013-04-10 01:06:00,36.7,33.2,29.88,North,0,0.0,0.0,87,0.00,,,-99.99,VWS V12.07,2013-04-10 06:06:00,
2013-04-10 01:15:00,36.5,33.3,29.88,North,0,0.0,0.0,88,0.00,,,-99.99,VWS V12.07,2013-04-10 06:15:00,
2013-04-10 01:20:00,36.3,33.1,29.88,North,0,0.0,0.0,88,0.00,,,-99.99,VWS V12.07,2013-04-10 06:20:00,
2013-04-10 01:25:00,36.3,33.1,29.88,North,0,0.0,0.0,88,0.00,,,-99.99,VWS V12.07,2013-04-10 06:25:00,
2013-04-10 01:30:00,36.3,33.1,29.88,North,0,0.0,0.0,88,0.00,,,-99.99,VWS V12.07,2013-04-10 06:30:00,
2013-04-10 01:40:00,36.0,32.8,29.85,North,0,0.0,0.0,88,0.04,,,-99.99,VWS V12.07,2013-04-10 06:40:00,
2013-04-10 01:45:00,35.8,32.6,29.85,North,0,0.0,0.0,88,0.04,,,-99.99,VWS V12.07,2013-04-10 06:45:00,
2013-04-10 01:50:00,35.6,32.4,29.88,North,0,0.0,0.0,88,0.04,,,-99.99,VWS V12.07,2013-04-10 06:50:00,
2013-04-10 01:55:00,35.6,32.4,29.88,North,0,0.0,0.0,88,0.04,,,-99.99,VWS V12.07,2013-04-10 06:55:00,
2013-04-10 02:00:00,35.6,32.4,29.88,North,0,0.0,0.0,88,0.04,,,-99.99,VWS V12.07,2013-04-10 07:00:00,
2013-04-10 02:10:00,35.4,32.2,29.88,North,0,0.0,0.0,88,0.04,,,-99.99,VWS V12.07,2013-04-10 07:10:00,
2013-04-10 02:15:00,35.1,31.9,29.88,North,0,0.0,0.0,88,0.12,,,-99.99,VWS V12.07,2013-04-10 07:15:00,
2013-04-10 02:20:00,34.9,31.7,29.88,North,0,0.0,0.0,88,0.12,,,-99.99,VWS V12.07,2013-04-10 07:20:00,
2013-04-10 02:25:00,34.9,31.7,29.88,North,0,0.0,0.0,88,0.12,,,-99.99,VWS V12.07,2013-04-10 07:25:00,
2013-04-10 02:30:00,34.7,31.5,29.88,North,0,0.0,0.0,88,0.12,,,-99.99,VWS V12.07,2013-04-10 07:30:00,
2013-04-10 02:35:00,34.7,31.5,29.85,North,0,0.0,0.0,88,0.12,,,-99.99,VWS V12.07,2013-04-10 07:35:00,
2013-04-10 02:45:00,34.5,31.3,29.85,North,0,0.0,0.0,88,0.12,,,-99.99,VWS V12.07,2013-04-10 07:45:00,
2013-04-10 02:50:00,34.3,31.2,29.85,North,0,0.0,0.0,88,0.12,,,-99.99,VWS V12.07,2013-04-10 07:50:00,
2013-04-10 02:55:00,34.3,31.2,29.85,North,0,0.0,0.0,88,0.12,,,-99.99,VWS V12.07,2013-04-10 07:55:00,
2013-04-10 03:00:00,34.3,31.2,29.85,North,0,0.0,0.0,88,0.08,,,-99.99,VWS V12.07,2013-04-10 08:00:00,
2013-04-10 03:05:00,34.3,31.2,29.85,North,0,0.0,0.0,88,0.08,,,-99.99,VWS V12.07,2013-04-10 08:05:00,
2013-04-10 03:11:00,34.3,31.2,29.85,North,0,0.0,0.0,88,0.08,,,-99.99,VWS V12.07,2013-04-10 08:11:00,
2013-04-10 03:20:00,34.5,31.1,29.85,North,0,0.0,0.0,87,0.08,,,-99.99,VWS V12.07,2013-04-10 08:20:00,
2013-04-10 03:25:00,34.5,31.1,29.85,North,0,0.0,0.0,87,0.08,,,-99.99,VWS V12.07,2013-04-10 08:25:00,
2013-04-10 03:30:00,34.3,30.9,29.85,North,0,0.0,0.0,87,0.08,,,-99.99,VWS V12.07,2013-04-10 08:30:00,
2013-04-10 03:40:00,34.3,30.9,29.88,North,0,0.0,0.0,87,0.08,,,-99.99,VWS V12.07,2013-04-10 08:40:00,
2013-04-10 03:45:00,34.3,30.9,29.88,North,0,0.0,0.0,87,0.08,,,-99.99,VWS V12.07,2013-04-10 08:45:00,
2013-04-10 03:50:00,34.3,30.9,29.85,North,0,0.0,0.0,87,0.08,,,-99.99,VWS V12.07,2013-04-10 08:50:00,
2013-04-10 03:55:00,34.3,30.9,29.85,North,0,0.0,0.0,87,0.08,,,-99.99,VWS V12.07,2013-04-10 08:55:00,
2013-04-10 04:00:00,34.5,31.1,29.85,North,0,0.0,0.0,87,0.08,,,-99.99,VWS V12.07,2013-04-10 09:00:00,
2013-04-10 04:05:00,34.5,31.1,29.85,North,0,0.0,0.0,87,0.00,,,-99.99,VWS V12.07,2013-04-10 09:05:00,
2013-04-10 04:15:00,34.5,31.3,29.85,North,0,0.0,0.0,88,0.00,,,-99.99,VWS V12.07,2013-04-10 09:15:00,
2013-04-10 04:20:00,34.7,31.5,29.85,North,0,0.0,0.0,88,0.00,,,-99.99,VWS V12.07,2013-04-10 09:20:00,
2013-04-10 04:25:00,34.7,31.5,29.85,North,0,0.0,0.0,88,0.00,,,-99.99,VWS V12.07,2013-04-10 09:25:00,
2013-04-10 04:30:00,34.7,31.5,29.85,North,0,0.0,0.0,88,0.00,,,-99.99,VWS V12.07,2013-04-10 09:30:00,
2013-04-10 04:35:00,34.9,31.7,29.85,North,0,0.0,0.0,88,0.00,,,-99.99,VWS V12.07,2013-04-10 09:35:00,
2013-04-10 04:40:00,34.9,31.7,29.85,North,0,0.0,0.0,88,0.00,,,-99.99,VWS V12.07,2013-04-10 09:40:00,
2013-04-10 04:50:00,34.9,31.7,29.82,North,0,0.0,0.0,88,0.00,,,-99.99,VWS V12.07,2013-04-10 09:50:00,
2013-04-10 04:55:00,34.9,31.7,29.82,North,0,0.0,0.0,88,0.00,,,-99.99,VWS V12.07,2013-04-10 09:55:00,
2013-04-10 05:00:00,34.9,31.7,29.82,North,0,0.0,0.0,88,0.00,,,-99.99,VWS V12.07,2013-04-10 10:00:00,
2013-04-10 05:05:00,35.1,31.9,29.91,North,0,0.0,0.0,88,0.00,,,-99.99,VWS V12.07,2013-04-10 10:05:00,
2013-04-10 05:10:00,35.1,31.9,29.91,North,0,0.0,0.0,88,0.04,,,-99.99,VWS V12.07,2013-04-10 10:10:00,
2013-04-10 05:15:00,35.1,31.9,29.91,North,0,0.0,0.0,88,0.04,,,-99.99,VWS V12.07,2013-04-10 10:15:00,
2013-04-10 05:20:00,35.1,31.9,29.91,North,0,0.0,0.0,88,0.04,,,-99.99,VWS V12.07,2013-04-10 10:20:00,
2013-04-10 05:25:00,35.1,31.9,29.91,North,0,0.0,0.0,88,0.08,,,-99.99,VWS V12.07,2013-04-10 10:25:00,
2013-04-10 05:30:00,35.1,31.9,29.91,North,0,0.0,0.0,88,0.08,,,-99.99,VWS V12.07,2013-04-10 10:30:00,
2013-04-10 05:35:00,35.1,31.9,30.00,North,0,0.0,0.0,88,0.12,,,-99.99,VWS V12.07,2013-04-10 10:35:00,
2013-04-10 05:41:00,34.9,31.7,30.00,North,0,0.0,0.0,88,0.16,,,-99.99,VWS V12.07,2013-04-10 10:41:00,
2013-04-10 05:50:00,34.5,31.3,29.88,North,0,0.0,0.0,88,0.20,,,-99.99,VWS V12.07,2013-04-10 10:50:00,
2013-04-10 05:55:00,34.3,31.4,29.88,North,0,0.0,0.0,89,0.20,,,-99.99,VWS V12.07,2013-04-10 10:55:00,
2013-04-10 06:00:00,34.3,31.4,29.88,North,0,0.0,0.0,89,0.24,,,-99.99,VWS V12.07,2013-04-10 11:00:00,
2013-04-10 06:05:00,34.3,31.4,29.85,North,0,0.0,0.0,89,0.24,,,-99.99,VWS V12.07,2013-04-10 11:05:00,
2013-04-10 06:10:00,34.3,31.4,29.85,North,0,0.0,0.0,89,0.28,,,-99.99,VWS V12.07,2013-04-10 11:10:00,
2013-04-10 06:16:00,34.3,31.4,29.85,North,0,0.0,0.0,89,0.28,,,-99.99,VWS V12.07,2013-04-10 11:16:00,
2013-04-10 06:25:00,34.5,31.9,29.82,North,0,0.0,0.0,90,0.28,,,-99.99,VWS V12.07,2013-04-10 11:25:00,
2013-04-10 06:30:00,34.5,31.9,29.82,North,0,0.0,0.0,90,0.31,,,-99.99,VWS V12.07,2013-04-10 11:30:00,
2013-04-10 06:35:00,34.5,31.9,29.79,North,0,0.0,0.0,90,0.31,,,-99.99,VWS V12.07,2013-04-10 11:35:00,
2013-04-10 06:41:00,34.7,32.1,29.79,North,0,0.0,0.0,90,0.31,,,-99.99,VWS V12.07,2013-04-10 11:41:00,
2013-04-10 06:50:00,34.7,32.3,29.85,North,0,0.0,0.0,91,0.31,,,-99.99,VWS V12.07,2013-04-10 11:50:00,
2013-04-10 06:55:00,34.9,32.5,29.85,North,0,0.0,0.0,91,0.35,,,-99.99,VWS V12.07,2013-04-10 11:55:00,
2013-04-10 07:00:00,34.9,32.5,29.85,North,0,0.0,0.0,91,0.35,,,-99.99,VWS V12.07,2013-04-10 12:00:00,
2013-04-10 07:11:00,34.5,32.2,29.85,North,0,0.0,0.0,91,0.12,,,-99.99,VWS V12.07,2013-04-10 12:11:00,
2013-04-10 07:20:00,34.7,32.3,29.85,North,0,0.0,0.0,91,0.16,,,-99.99,VWS V12.07,2013-04-10 12:20:00,
2013-04-10 07:25:00,34.9,32.5,29.85,North,0,0.0,0.0,91,0.16,,,-99.99,VWS V12.07,2013-04-10 12:25:00,
2013-04-10 07:30:00,34.9,32.5,29.85,North,0,0.0,0.0,91,0.16,,,-99.99,VWS V12.07,2013-04-10 12:30:00,
2013-04-10 07:35:00,34.9,32.5,29.85,North,0,0.0,0.0,91,0.20,,,-99.99,VWS V12.07,2013-04-10 12:35:00,
2013-04-10 07:40:00,35.1,32.7,29.85,North,0,0.0,0.0,91,0.20,,,-99.99,VWS V12.07,2013-04-10 12:40:00,
2013-04-10 07:45:00,35.1,33.0,29.85,North,0,0.0,0.0,92,0.20,,,-99.99,VWS V12.07,2013-04-10 12:45:00,
2013-04-10 07:55:00,35.4,33.3,29.91,North,0,0.0,0.0,92,0.24,,,-99.99,VWS V12.07,2013-04-10 12:55:00,
2013-04-10 08:00:00,35.4,33.3,29.91,North,0,0.0,0.0,92,0.12,,,-99.99,VWS V12.07,2013-04-10 13:00:00,
2013-04-10 08:10:00,35.4,33.3,29.91,North,0,0.0,0.0,92,0.20,,,-99.99,VWS V12.07,2013-04-10 13:10:00,
2013-04-10 08:15:00,35.4,33.3,29.91,North,0,0.0,0.0,92,0.20,,,-99.99,VWS V12.07,2013-04-10 13:15:00,
2013-04-10 08:20:00,35.4,33.3,29.88,North,0,0.0,0.0,92,0.20,,,-99.99,VWS V12.07,2013-04-10 13:20:00,
2013-04-10 08:25:00,35.2,33.2,29.88,North,0,0.0,0.0,92,0.24,,,-99.99,VWS V12.07,2013-04-10 13:25:00,
2013-04-10 08:30:00,35.1,33.0,29.88,North,0,0.0,0.0,92,0.24,,,-99.99,VWS V12.07,2013-04-10 13:30:00,
2013-04-10 08:35:00,35.1,33.0,29.76,North,0,0.0,0.0,92,0.24,,,-99.99,VWS V12.07,2013-04-10 13:35:00,
2013-04-10 08:40:00,35.4,33.3,29.76,North,0,0.0,0.0,92,0.24,,,-99.99,VWS V12.07,2013-04-10 13:40:00,
2013-04-10 08:45:00,35.6,33.5,29.76,North,0,0.0,0.0,92,0.24,,,-99.99,VWS V12.07,2013-04-10 13:45:00,
2013-04-10 08:50:00,35.6,33.5,29.76,North,0,0.0,0.0,92,0.24,,,-99.99,VWS V12.07,2013-04-10 13:50:00,
2013-04-10 09:00:00,36.1,34.3,29.76,North,0,0.0,0.0,93,0.12,,,-99.99,VWS V12.07,2013-04-10 14:00:00,
2013-04-10 09:10:00,36.3,34.5,29.73,North,0,0.0,0.0,93,0.12,,,-99.99,VWS V12.07,2013-04-10 14:10:00,
2013-04-10 09:15:00,36.5,34.7,29.73,North,0,0.0,0.0,93,0.12,,,-99.99,VWS V12.07,2013-04-10 14:15:00,
2013-04-10 09:20:00,36.5,34.7,29.76,North,0,0.0,0.0,93,0.12,,,-99.99,VWS V12.07,2013-04-10 14:20:00,
2013-04-10 09:30:00,36.7,34.8,29.76,North,0,0.0,0.0,93,0.12,,,-99.99,VWS V12.07,2013-04-10 14:30:00,
2013-04-10 09:35:00,36.9,35.3,29.85,North,0,0.0,0.0,94,0.12,,,-99.99,VWS V12.07,2013-04-10 14:35:00,
2013-04-10 09:40:00,36.9,35.3,29.85,North,0,0.0,0.0,94,0.12,,,-99.99,VWS V12.07,2013-04-10 14:40:00,
2013-04-10 09:45:00,36.9,35.3,29.85,North,0,0.0,0.0,94,0.12,,,-99.99,VWS V12.07,2013-04-10 14:45:00,
2013-04-10 09:51:00,36.9,35.3,29.85,North,0,0.0,0.0,94,0.12,,,-99.99,VWS V12.07,2013-04-10 14:51:00,
2013-04-10 10:00:00,37.0,35.5,29.85,North,0,0.0,0.0,94,0.00,,,-99.99,VWS V12.07,2013-04-10 15:00:00,
2013-04-10 10:10:00,37.0,35.5,29.88,North,0,0.0,0.0,94,0.00,,,-99.99,VWS V12.07,2013-04-10 15:10:00,
2013-04-10 10:15:00,37.2,35.7,29.88,North,0,0.0,0.0,94,0.00,,,-99.99,VWS V12.07,2013-04-10 15:15:00,
2013-04-10 10:20:00,37.4,35.8,29.88,North,0,0.0,0.0,94,0.00,,,-99.99,VWS V12.07,2013-04-10 15:20:00,
2013-04-10 10:25:00,37.4,35.8,29.88,North,0,0.0,0.0,94,0.00,,,-99.99,VWS V12.07,2013-04-10 15:25:00,
2013-04-10 10:31:00,37.6,36.0,29.88,North,0,0.0,0.0,94,0.00,,,-99.99,VWS V12.07,2013-04-10 15:31:00,
2013-04-10 10:40:00,37.4,35.6,29.91,North,0,0.0,0.0,93,0.00,,,-99.99,VWS V12.07,2013-04-10 15:40:00,
2013-04-10 10:45:00,37.4,35.6,29.91,North,0,0.0,0.0,93,0.00,,,-99.99,VWS V12.07,2013-04-10 15:45:00,
2013-04-10 10:50:00,37.4,35.6,29.91,North,0,0.0,0.0,93,0.00,,,-99.99,VWS V12.07,2013-04-10 15:50:00,
2013-04-10 10:55:00,37.4,35.6,29.91,North,0,0.0,0.0,93,0.00,,,-99.99,VWS V12.07,2013-04-10 15:55:00,
2013-04-10 11:00:00,37.6,35.7,29.91,North,0,0.0,0.0,93,0.00,,,-99.99,VWS V12.07,2013-04-10 16:00:00,
2013-04-10 11:05:00,37.6,35.7,29.94,North,0,0.0,0.0,93,0.00,,,-99.99,VWS V12.07,2013-04-10 16:05:00,
2013-04-10 11:10:00,37.8,35.9,29.94,North,0,0.0,0.0,93,0.00,,,-99.99,VWS V12.07,2013-04-10 16:10:00,
2013-04-10 11:15:00,37.9,36.1,29.94,North,0,0.0,0.0,93,0.00,,,-99.99,VWS V12.07,2013-04-10 16:15:00,
2013-04-10 11:20:00,37.9,36.1,29.94,North,0,0.0,0.0,93,0.00,,,-99.99,VWS V12.07,2013-04-10 16:20:00,
2013-04-10 11:30:00,37.9,35.8,29.94,North,0,0.0,0.0,92,0.00,,,-99.99,VWS V12.07,2013-04-10 16:30:00,
2013-04-10 11:35:00,37.9,35.8,29.91,North,0,0.0,0.0,92,0.00,,,-99.99,VWS V12.07,2013-04-10 16:35:00,
2013-04-10 11:40:00,37.9,35.8,29.91,North,0,0.0,0.0,92,0.00,,,-99.99,VWS V12.07,2013-04-10 16:40:00,
2013-04-10 11:45:00,37.9,35.8,29.91,North,0,0.0,0.0,92,0.00,,,-99.99,VWS V12.07,2013-04-10 16:45:00,
2013-04-10 11:51:00,37.9,35.8,29.88,North,0,0.0,0.0,92,0.00,,,-99.99,VWS V12.07,2013-04-10 16:51:00,
2013-04-10 12:00:00,38.1,36.0,29.88,North,0,0.0,0.0,92,0.00,,,-99.99,VWS V12.07,2013-04-10 17:00:00,
2013-04-10 12:10:00,37.9,35.5,29.85,North,0,0.0,0.0,91,0.00,,,-99.99,VWS V12.07,2013-04-10 17:10:00,
2013-04-10 12:15:00,37.9,35.3,29.85,North,0,0.0,0.0,90,0.00,,,-99.99,VWS V12.07,2013-04-10 17:15:00,
2013-04-10 12:21:00,37.9,35.3,29.85,North,0,0.0,0.0,90,0.00,,,-99.99,VWS V12.07,2013-04-10 17:21:00,
2013-04-10 12:30:00,37.6,34.6,29.85,North,0,0.0,0.0,89,0.00,,,-99.99,VWS V12.07,2013-04-10 17:30:00,
2013-04-10 12:35:00,37.8,34.8,29.82,North,0,0.0,0.0,89,0.00,,,-99.99,VWS V12.07,2013-04-10 17:35:00,
2013-04-10 12:40:00,37.8,34.8,29.82,North,0,0.0,0.0,89,0.00,,,-99.99,VWS V12.07,2013-04-10 17:40:00,
2013-04-10 12:45:00,37.9,34.7,29.82,North,0,0.0,0.0,88,0.00,,,-99.99,VWS V12.07,2013-04-10 17:45:00,
2013-04-10 12:50:00,37.9,34.7,29.85,North,0,0.0,0.0,88,0.00,,,-99.99,VWS V12.07,2013-04-10 17:50:00,
2013-04-10 13:00:00,37.9,34.4,29.85,North,0,0.0,0.0,87,0.00,,,-99.99,VWS V12.07,2013-04-10 18:00:00,
2013-04-10 13:10:00,38.1,34.6,29.85,North,0,0.0,0.0,87,0.00,,,-99.99,VWS V12.07,2013-04-10 18:10:00,
2013-04-10 13:15:00,38.1,34.3,29.85,North,0,0.0,0.0,86,0.00,,,-99.99,VWS V12.07,2013-04-10 18:15:00,
2013-04-10 13:20:00,38.1,34.3,29.88,North,0,0.0,0.0,86,0.00,,,-99.99,VWS V12.07,2013-04-10 18:20:00,
2013-04-10 13:30:00,38.1,34.3,29.88,North,0,0.0,0.0,86,0.00,,,-99.99,VWS V12.07,2013-04-10 18:30:00,
2013-04-10 13:35:00,38.1,34.3,29.88,North,0,0.0,0.0,86,0.00,,,-99.99,VWS V12.07,2013-04-10 18:35:00,
2013-04-10 13:40:00,38.1,34.3,29.88,North,0,0.0,0.0,86,0.00,,,-99.99,VWS V12.07,2013-04-10 18:40:00,
2013-04-10 13:50:00,37.9,33.8,29.88,North,0,0.0,0.0,85,0.00,,,-99.99,VWS V12.07,2013-04-10 18:50:00,
2013-04-10 13:55:00,37.8,33.7,29.88,North,0,0.0,0.0,85,0.00,,,-99.99,VWS V12.07,2013-04-10 18:55:00,
2013-04-10 14:00:00,37.8,33.7,29.88,North,0,0.0,0.0,85,0.00,,,-99.99,VWS V12.07,2013-04-10 19:00:00,
2013-04-10 14:05:00,37.6,33.5,29.85,North,0,0.0,0.0,85,0.00,,,-99.99,VWS V12.07,2013-04-10 19:05:00,
2013-04-10 14:10:00,37.6,33.5,29.85,North,0,0.0,0.0,85,0.00,,,-99.99,VWS V12.07,2013-04-10 19:10:00,
2013-04-10 14:15:00,37.6,33.5,29.85,North,0,0.0,0.0,85,0.00,,,-99.99,VWS V12.07,2013-04-10 19:15:00,
2013-04-10 14:21:00,37.6,33.5,29.91,North,0,0.0,0.0,85,0.00,,,-99.99,VWS V12.07,2013-04-10 19:21:00,
2013-04-10 14:30:00,37.6,33.5,29.91,North,0,0.0,0.0,85,0.00,,,-99.99,VWS V12.07,2013-04-10 19:30:00,
2013-04-10 14:35:00,37.6,33.5,29.91,North,0,0.0,0.0,85,0.00,,,-99.99,VWS V12.07,2013-04-10 19:35:00,
2013-04-10 14:40:00,37.6,33.5,29.91,North,0,0.0,0.0,85,0.00,,,-99.99,VWS V12.07,2013-04-10 19:40:00,
2013-04-10 14:45:00,37.4,33.3,29.91,North,0,0.0,0.0,85,0.00,,,-99.99,VWS V12.07,2013-04-10 19:45:00,
2013-04-10 14:50:00,37.4,33.3,29.91,North,0,0.0,0.0,85,0.00,,,-99.99,VWS V12.07,2013-04-10 19:50:00,
2013-04-10 15:00:00,37.6,33.5,29.91,North,0,0.0,0.0,85,0.00,,,-99.99,VWS V12.07,2013-04-10 20:00:00,
2013-04-10 15:10:00,37.4,33.6,29.91,North,0,0.0,0.0,86,0.00,,,-99.99,VWS V12.07,2013-04-10 20:10:00,
2013-04-10 15:15:00,37.4,33.6,29.91,North,0,0.0,0.0,86,0.00,,,-99.99,VWS V12.07,2013-04-10 20:15:00,
2013-04-10 15:21:00,37.2,33.4,29.91,North,0,0.0,0.0,86,0.00,,,-99.99,VWS V12.07,2013-04-10 20:21:00,
2013-04-10 15:30:00,37.2,33.4,29.91,North,0,0.0,0.0,86,0.00,,,-99.99,VWS V12.07,2013-04-10 20:30:00,
2013-04-10 15:35:00,37.2,33.4,29.91,North,0,0.0,0.0,86,0.00,,,-99.99,VWS V12.07,2013-04-10 20:35:00,
2013-04-10 15:40:00,37.2,33.4,29.91,North,0,0.0,0.0,86,0.04,,,-99.99,VWS V12.07,2013-04-10 20:40:00,
2013-04-10 15:45:00,37.2,33.4,29.91,North,0,0.0,0.0,86,0.04,,,-99.99,VWS V12.07,2013-04-10 20:45:00,
2013-04-10 15:51:00,37.0,33.2,29.91,North,0,0.0,0.0,86,0.04,,,-99.99,VWS V12.07,2013-04-10 20:51:00,
2013-04-10 16:00:00,37.0,33.2,29.91,North,0,0.0,0.0,86,0.04,,,-99.99,VWS V12.07,2013-04-10 21:00:00,
2013-04-10 16:05:00,37.0,33.5,29.88,North,0,0.0,0.0,87,0.04,,,-99.99,VWS V12.07,2013-04-10 21:05:00,
2013-04-10 16:10:00,37.0,33.5,29.88,North,0,0.0,0.0,87,0.04,,,-99.99,VWS V12.07,2013-04-10 21:10:00,
2013-04-10 16:15:00,37.0,33.5,29.88,North,0,0.0,0.0,87,0.04,,,-99.99,VWS V12.07,2013-04-10 21:15:00,
2013-04-10 16:20:00,37.0,33.5,29.85,North,0,0.0,0.0,87,0.04,,,-99.99,VWS V12.07,2013-04-10 21:20:00,
2013-04-10 16:25:00,37.0,33.5,29.85,North,0,0.0,0.0,87,0.04,,,-99.99,VWS V12.07,2013-04-10 21:25:00,
2013-04-10 16:30:00,36.9,33.4,29.85,North,0,0.0,0.0,87,0.04,,,-99.99,VWS V12.07,2013-04-10 21:30:00,
2013-04-10 16:35:00,36.9,33.4,29.85,North,0,0.0,0.0,87,0.04,,,-99.99,VWS V12.07,2013-04-10 21:35:00,
2013-04-10 16:41:00,36.9,33.4,29.85,North,0,0.0,0.0,87,0.08,,,-99.99,VWS V12.07,2013-04-10 21:41:00,
2013-04-10 16:50:00,37.0,33.8,29.85,North,0,0.0,0.0,88,0.08,,,-99.99,VWS V12.07,2013-04-10 21:50:00,
2013-04-10 16:55:00,37.0,33.8,29.85,North,0,0.0,0.0,88,0.08,,,-99.99,VWS V12.07,2013-04-10 21:55:00,
2013-04-10 17:00:00,37.0,33.8,29.85,North,0,0.0,0.0,88,0.04,,,-99.99,VWS V12.07,2013-04-10 22:00:00,
2013-04-10 17:05:00,37.0,33.8,29.82,North,0,0.0,0.0,88,0.04,,,-99.99,VWS V12.07,2013-04-10 22:05:00,
2013-04-10 17:15:00,36.9,33.9,29.82,North,0,0.0,0.0,89,0.04,,,-99.99,VWS V12.07,2013-04-10 22:15:00,
2013-04-10 17:20:00,36.9,33.9,29.82,North,0,0.0,0.0,89,0.04,,,-99.99,VWS V12.07,2013-04-10 22:20:00,
2013-04-10 17:25:00,36.9,33.9,29.82,North,0,0.0,0.0,89,0.04,,,-99.99,VWS V12.07,2013-04-10 22:25:00,
2013-04-10 17:30:00,36.9,33.9,29.82,North,0,0.0,0.0,89,0.04,,,-99.99,VWS V12.07,2013-04-10 22:30:00,
2013-04-10 17:36:00,36.9,33.9,29.85,North,0,0.0,0.0,89,0.04,,,-99.99,VWS V12.07,2013-04-10 22:36:00,
2013-04-10 17:45:00,36.9,33.9,29.85,North,0,0.0,0.0,89,0.04,,,-99.99,VWS V12.07,2013-04-10 22:45:00,
2013-04-10 17:50:00,36.9,33.9,29.85,North,0,0.0,0.0,89,0.04,,,-99.99,VWS V12.07,2013-04-10 22:50:00,
2013-04-10 17:55:00,36.9,34.2,29.85,North,0,0.0,0.0,90,0.04,,,-99.99,VWS V12.07,2013-04-10 22:55:00,
2013-04-10 18:00:00,36.7,34.0,29.85,North,0,0.0,0.0,90,0.04,,,-99.99,VWS V12.07,2013-04-10 23:00:00,
2013-04-10 18:05:00,36.7,34.0,29.85,North,0,0.0,0.0,90,0.00,,,-99.99,VWS V12.07,2013-04-10 23:05:00,
2013-04-10 18:15:00,36.5,33.8,29.85,North,0,0.0,0.0,90,0.00,,,-99.99,VWS V12.07,2013-04-10 23:15:00,
2013-04-10 18:20:00,36.5,33.8,29.85,North,0,0.0,0.0,90,0.00,,,-99.99,VWS V12.07,2013-04-10 23:20:00,
2013-04-10 18:25:00,36.5,33.8,29.85,North,0,0.0,0.0,90,0.00,,,-99.99,VWS V12.07,2013-04-10 23:25:00,
2013-04-10 18:31:00,36.5,33.8,29.85,North,0,0.0,0.0,90,0.00,,,-99.99,VWS V12.07,2013-04-10 23:31:00,
2013-04-10 18:40:00,36.5,33.8,29.85,North,0,0.0,0.0,90,0.00,,,-99.99,VWS V12.07,2013-04-10 23:40:00,
2013-04-10 18:45:00,36.5,33.8,29.85,North,0,0.0,0.0,90,0.00,,,-99.99,VWS V12.07,2013-04-10 23:45:00,
2013-04-10 18:50:00,36.5,33.8,29.85,North,0,0.0,0.0,90,0.00,,,-99.99,VWS V12.07,2013-04-10 23:50:00,
2013-04-10 18:55:00,36.5,33.8,29.85,North,0,0.0,0.0,90,0.00,,,-99.99,VWS V12.07,2013-04-10 23:55:00,
2013-04-10 19:01:00,36.5,33.8,29.85,North,0,0.0,0.0,90,0.00,,,-99.99,VWS V12.07,2013-04-11 00:01:00,
2013-04-10 19:10:00,36.5,33.8,29.85,North,0,0.0,0.0,90,0.00,,,-99.99,VWS V12.07,2013-04-11 00:10:00,
2013-04-10 19:15:00,36.5,33.8,29.85,North,0,0.0,0.0,90,0.00,,,-99.99,VWS V12.07,2013-04-11 00:15:00,
2013-04-10 19:20:00,36.5,33.8,29.82,North,0,0.0,0.0,90,0.00,,,-99.99,VWS V12.07,2013-04-11 00:20:00,
2013-04-10 19:31:00,36.3,33.7,29.82,North,0,0.0,0.0,90,0.00,,,-99.99,VWS V12.07,2013-04-11 00:31:00,
2013-04-10 19:40:00,36.3,33.7,29.79,North,0,0.0,0.0,90,0.00,,,-99.99,VWS V12.07,2013-04-11 00:40:00,
2013-04-10 19:45:00,36.3,33.7,29.79,North,0,0.0,0.0,90,0.00,,,-99.99,VWS V12.07,2013-04-11 00:45:00,
2013-04-10 19:50:00,36.3,33.7,29.79,North,0,0.0,0.0,90,0.00,,,-99.99,VWS V12.07,2013-04-11 00:50:00,
2013-04-10 19:55:00,36.3,33.7,29.79,North,0,0.0,0.0,90,0.00,,,-99.99,VWS V12.07,2013-04-11 00:55:00,
2013-04-10 20:00:00,36.3,33.7,29.79,North,0,0.0,0.0,90,0.00,,,-99.99,VWS V12.07,2013-04-11 01:00:00,
2013-04-10 20:06:00,36.3,33.4,29.76,North,0,0.0,0.0,89,0.00,,,-99.99,VWS V12.07,2013-04-11 01:06:00,
2013-04-10 20:15:00,36.3,33.4,29.76,North,0,0.0,0.0,89,0.00,,,-99.99,VWS V12.07,2013-04-11 01:15:00,
2013-04-10 20:20:00,36.3,33.4,29.79,North,0,0.0,0.0,89,0.00,,,-99.99,VWS V12.07,2013-04-11 01:20:00,
2013-04-10 20:25:00,36.3,33.4,29.79,North,0,0.0,0.0,89,0.00,,,-99.99,VWS V12.07,2013-04-11 01:25:00,
2013-04-10 20:30:00,36.5,33.6,29.79,North,0,0.0,0.0,89,0.00,,,-99.99,VWS V12.07,2013-04-11 01:30:00,
2013-04-10 20:35:00,36.7,33.8,29.85,North,0,0.0,0.0,89,0.00,,,-99.99,VWS V12.07,2013-04-11 01:35:00,
2013-04-10 20:45:00,36.9,33.9,29.85,North,0,0.0,0.0,89,0.00,,,-99.99,VWS V12.07,2013-04-11 01:45:00,
2013-04-10 20:50:00,36.9,33.9,29.88,North,0,0.0,0.0,89,0.00,,,-99.99,VWS V12.07,2013-04-11 01:50:00,
2013-04-10 20:55:00,36.9,33.9,29.88,North,0,0.0,0.0,89,0.00,,,-99.99,VWS V12.07,2013-04-11 01:55:00,
2013-04-10 21:00:00,36.9,33.9,29.88,North,0,0.0,0.0,89,0.00,,,-99.99,VWS V12.07,2013-04-11 02:00:00,
2013-04-10 21:05:00,36.9,33.9,29.85,North,0,0.0,0.0,89,0.00,,,-99.99,VWS V12.07,2013-04-11 02:05:00,
2013-04-10 21:15:00,36.9,33.7,29.85,North,0,0.0,0.0,88,0.00,,,-99.99,VWS V12.07,2013-04-11 02:15:00,
2013-04-10 21:20:00,37.0,33.8,29.88,North,0,0.0,0.0,88,0.00,,,-99.99,VWS V12.07,2013-04-11 02:20:00,
2013-04-10 21:25:00,37.0,33.8,29.88,North,0,0.0,0.0,88,0.00,,,-99.99,VWS V12.07,2013-04-11 02:25:00,
2013-04-10 21:30:00,37.2,34.0,29.88,North,0,0.0,0.0,88,0.00,,,-99.99,VWS V12.07,2013-04-11 02:30:00,
2013-04-10 21:40:00,37.4,33.9,29.85,North,0,0.0,0.0,87,0.00,,,-99.99,VWS V12.07,2013-04-11 02:40:00,
2013-04-10 21:45:00,37.4,33.9,29.85,North,0,0.0,0.0,87,0.00,,,-99.99,VWS V12.07,2013-04-11 02:45:00,
2013-04-10 21:50:00,37.6,34.1,29.79,North,0,0.0,0.0,87,0.00,,,-99.99,VWS V12.07,2013-04-11 02:50:00,
2013-04-10 21:55:00,37.6,34.1,29.79,North,0,0.0,0.0,87,0.00,,,-99.99,VWS V12.07,2013-04-11 02:55:00,
2013-04-10 22:00:00,37.6,34.1,29.79,North,0,0.0,0.0,87,0.00,,,-99.99,VWS V12.07,2013-04-11 03:00:00,
2013-04-10 22:05:00,37.6,34.1,29.82,North,0,0.0,0.0,87,0.00,,,-99.99,VWS V12.07,2013-04-11 03:05:00,
2013-04-10 22:11:00,37.6,34.1,29.82,North,0,0.0,0.0,87,0.00,,,-99.99,VWS V12.07,2013-04-11 03:11:00,
2013-04-10 22:20:00,37.6,33.8,29.85,North,0,0.0,0.0,86,0.04,,,-99.99,VWS V12.07,2013-04-11 03:20:00,
2013-04-10 22:25:00,37.6,34.1,29.85,North,0,0.0,0.0,87,0.04,,,-99.99,VWS V12.07,2013-04-11 03:25:00,
2013-04-10 22:30:00,37.6,34.1,29.85,North,0,0.0,0.0,87,0.04,,,-99.99,VWS V12.07,2013-04-11 03:30:00,
2013-04-10 22:35:00,37.8,34.2,29.82,North,0,0.0,0.0,87,0.04,,,-99.99,VWS V12.07,2013-04-11 03:35:00,
2013-04-10 22:45:00,37.6,34.1,29.82,North,0,0.0,0.0,87,0.12,,,-99.99,VWS V12.07,2013-04-11 03:45:00,
2013-04-10 22:50:00,37.6,34.1,29.82,North,0,0.0,0.0,87,0.12,,,-99.99,VWS V12.07,2013-04-11 03:50:00,
2013-04-10 22:55:00,37.6,34.1,29.82,North,0,0.0,0.0,87,0.12,,,-99.99,VWS V12.07,2013-04-11 03:55:00,
2013-04-10 23:00:00,37.6,34.1,29.82,North,0,0.0,0.0,87,0.12,,,-99.99,VWS V12.07,2013-04-11 04:00:00,
2013-04-10 23:06:00,37.6,34.1,29.82,North,0,0.0,0.0,87,0.16,,,-99.99,VWS V12.07,2013-04-11 04:06:00,
2013-04-10 23:10:00,37.6,34.1,29.82,North,0,0.0,0.0,87,0.16,,,-99.99,VWS V12.07,2013-04-11 04:10:00,
2013-04-10 23:15:00,37.4,33.9,29.82,North,0,0.0,0.0,87,0.20,,,-99.99,VWS V12.07,2013-04-11 04:15:00,
2013-04-10 23:20:00,37.4,33.9,29.82,North,0,0.0,0.0,87,0.20,,,-99.99,VWS V12.07,2013-04-11 04:20:00,
2013-04-10 23:25:00,37.4,33.9,29.82,North,0,0.0,0.0,87,0.20,,,-99.99,VWS V12.07,2013-04-11 04:25:00,
2013-04-10 23:30:00,37.4,34.2,29.82,North,0,0.0,0.0,88,0.20,,,-99.99,VWS V12.07,2013-04-11 04:30:00,
2013-04-10 23:36:00,37.4,34.2,29.82,North,0,0.0,0.0,88,0.24,,,-99.99,VWS V12.07,2013-04-11 04:36:00,
2013-04-10 23:45:00,37.2,34.0,29.82,North,0,0.0,0.0,88,0.24,,,-99.99,VWS V12.07,2013-04-11 04:45:00,
2013-04-10 23:50:00,37.2,34.3,29.82,North,0,0.0,0.0,89,0.24,,,-99.99,VWS V12.07,2013-04-11 04:50:00,
2013-04-10 23:55:00,37.2,34.3,29.82,North,0,0.0,0.0,89,0.28,,,-99.99,VWS V12.07,2013-04-11 04:55:00,